Weather observations for the past three days for
Astoria, Astoria Regional Airport
Metric (Imperial)
Date Time (pdt) Wind (kph) Vis. (km) Weather Sky Cond. Temperature (ºC) Relative Humidity Wind Chill (°C) Heat Index (°C) Pressure Precipitation (cm)
Air Dwpt 6 hour altimeter (cm) sea level (mb) 1 hr 3 hr 6 hr
Max. Min.
07 08:55 NW 11 16.09 Overcast OVC028 11.1 4.4 64% 76.61 1021.3
07 07:55 N 9 16.09 Overcast OVC029 11.1 5 66% 76.61 1021.2
07 06:55 NW 7 16.09 Overcast OVC028 10.6 4.4 66% 76.58 1020.9
07 05:55 NW 6 16.09 Overcast OVC026 10 5.6 74% 76.58 1021.0
07 04:55 Calm 16.09 Overcast OVC026 10.6 5.6 11.7 10.6 71% 76.61 1021.3
07 03:55 W 6 16.09 Overcast OVC026 10.6 5.6 71% 76.63 1021.6
07 02:55 W 9 16.09 Overcast OVC026 10.6 5.6 71% 76.66 1022.0
07 01:55 W 6 16.09 Overcast OVC026 11.1 5.6 69% 76.68 1022.2
07 00:55 NW 9 16.09 Overcast OVC026 11.1 6.1 72% 76.68 1022.3
06 23:55 W 11 16.09 Overcast BKN027 OVC033 11.1 6.7 75% 76.68 1022.3
06 22:55 NW 15 16.09 Overcast OVC031 11.7 7.2 13.3 11.7 74% 76.68 1022.4
06 21:55 W 11 16.09 Overcast OVC029 12.2 6.7 69% 76.71 1022.5
06 20:55 W 7 14.48 Overcast OVC026 11.7 9.4 86% 76.68 1022.3
06 19:55 W 11 12.87 Overcast SCT013 OVC026 12.2 9.4 83% 76.66 1022.0
06 18:55 W 11 14.48 Overcast FEW013 OVC024 12.2 10 87% 76.66 1022.1
06 17:55 W 15 16.09 Overcast FEW015 OVC026 12.8 9.4 80% 76.68 1022.2
06 15:55 SW 17 16.09 Overcast BKN017 OVC029 13.3 9.4 77% 76.68 1022.4
06 14:55 W 20 16.09 Overcast BKN017 OVC030 13.3 9.4 77% 76.71 1022.5
06 13:55 W 11 14.48 Overcast OVC014 12.8 9.4 80% 76.68 1022.3
06 12:55 Vrbl 9 14.48 Overcast OVC014 12.8 9.4 80% 76.68 1022.1
06 11:55 W 9 12.87 Overcast BKN013 OVC019 12.2 9.4 83% 76.66 1021.9
06 10:55 W 11 16.09 Overcast OVC016 12.2 9.4 12.8 11.7 83% 76.63 1021.6
06 09:55 W 9 16.09 Overcast OVC019 12.8 8.9 77% 76.61 1021.3
06 08:55 SW 11 16.09 Overcast OVC019 12.8 8.9 77% 76.58 1020.8
06 07:55 W 9 16.09 Overcast OVC021 12.2 8.9 80% 76.56 1020.6
06 06:55 Calm 16.09 Overcast OVC019 11.7 8.9 83% 76.5 1020.0
06 05:55 W 9 16.09 Overcast OVC018 11.7 8.9 83% 76.5 1020.0
06 04:55 W 7 16.09 Overcast OVC019 11.7 8.9 12.8 11.7 83% 76.48 1019.6
06 03:55 W 7 16.09 Overcast OVC016 12.2 8.9 80% 76.45 1019.1
06 02:55 SW 7 16.09 Overcast OVC016 12.2 9.4 83% 76.43 1018.8
06 01:55 SW 7 16.09 Overcast OVC015 12.2 9.4 83% 76.4 1018.6
06 00:55 SW 6 16.09 Overcast OVC015 12.8 9.4 80% 76.38 1018.2
05 23:55 SW 7 16.09 Overcast OVC016 12.8 9.4 80% 76.35 1017.9
05 22:55 Calm 16.09 Overcast OVC016 12.8 9.4 14.4 12.8 80% 76.33 1017.6
05 21:55 Calm 16.09 Overcast OVC018 12.8 10.6 87% 76.33 1017.4
05 20:55 SW 6 16.09 Overcast OVC020 12.8 10 83% 76.3 1017.1
05 19:55 SW 9 16.09 Overcast OVC020 13.3 10.6 84% 76.25 1016.6
05 18:55 W 9 16.09 Overcast OVC022 13.9 10 78% 76.23 1016.3
05 17:55 Calm 16.09 Overcast OVC021 13.9 10 78% 76.23 1016.3
05 16:55 W 9 16.09 Overcast FEW018 OVC024 14.4 10.6 15 13.9 78% 76.25 1016.6
05 15:55 W 13 16.09 Overcast FEW019 OVC024 14.4 10 75% 76.28 1016.9
05 14:55 W 11 16.09 Overcast OVC023 14.4 10 75% 76.28 1017.0
05 13:55 SW 17 16.09 Overcast OVC023 14.4 9.4 72% 76.3 1017.2
05 12:55 SW 15 16.09 Overcast OVC022 14.4 9.4 72% 76.28 1017.0
05 11:55 SW 15 16.09 Overcast OVC021 13.9 10 78% 76.28 1016.9
05 10:55 Vrbl 11 16.09 Overcast OVC020 13.9 9.4 13.9 12.2 74% 76.28 1016.7
05 09:55 Vrbl 9 16.09 Overcast OVC020 13.3 9.4 77% 76.25 1016.5
05 08:55 S 6 16.09 Overcast FEW015 OVC021 12.8 8.9 77% 76.2 1015.9
05 07:55 S 7 16.09 Overcast OVC019 12.8 10 83% 76.17 1015.6
05 06:55 S 6 16.09 Overcast OVC018 12.8 9.4 80% 76.15 1015.1
05 05:55 S 9 16.09 Overcast OVC017 12.8 9.4 80% 76.12 1014.8
05 04:55 S 11 16.09 Overcast OVC019 12.8 9.4 12.8 12.2 80% 76.1 1014.4
05 03:55 S 9 16.09 Overcast OVC018 12.8 9.4 80% 76.1 1014.4
05 02:55 S 11 16.09 Overcast OVC017 12.8 9.4 80% 76.07 1014.3
05 01:55 SW 11 16.09 Overcast OVC016 12.8 9.4 80% 76.05 1013.9
05 00:55 SW 13 16.09 Overcast OVC016 12.8 10 83% 76.05 1013.9
04 23:55 S 11 16.09 Overcast OVC015 12.8 9.4 80% 76.02 1013.6
04 22:55 SW 15 G 30 16.09 Overcast OVC013 12.8 10 13.9 12.2 83% 76 1013.2
04 21:55 SW 15 16.09 Overcast OVC012 12.2 10 87% 76.02 1013.4
04 20:55 SW 17 16.09 Overcast OVC014 12.8 10 83% 76 1013.0
04 19:55 SW 19 G 31 16.09 Overcast OVC012 12.8 10 83% 75.97 1012.8
04 18:55 SW 19 G 33 16.09 Mostly Cloudy BKN013 13.3 10.6 84% 75.97 1012.8
04 17:55 SW 20 G 48 16.09 Partly Cloudy SCT012 13.9 10.6 81% 76 1013.0
04 16:55 SW 26 G 52 16.09 Mostly Cloudy BKN011 14.4 10.6 16.1 14.4 78% 75.97 1012.9
04 15:55 SW 28 G 50 16.09 Light Rain FEW012 15 11.1 78% 75.97 1012.9
04 14:55 SW 30 G 57 16.09 Fair CLR 15.6 11.1 75% 76 1013.2
04 13:55 SW 26 G 46 16.09 Fair CLR 16.1 11.1 72% 76 1013.3
04 12:55 SW 28 G 46 16.09 Fair CLR 16.1 11.1 72% 76.02 1013.3
04 11:55 SW 30 G 48 16.09 Fair CLR 15.6 10.6 72% 76.02 1013.5
04 10:55 SW 28 G 37 16.09 Fair CLR 15.6 11.1 15.6 11.7 75% 76 1013.3
04 09:55 SW 15 16.09 Mostly Cloudy BKN014 15 10.6 75% 76 1013.1
Date Time (pdt) Wind (kph) Vis. (km) Weather Sky Cond. Air Dwpt Max. Min. Relative Humidity Wind Chill (°C) Heat Index (°C) altimeter (cm) sea level (mb) 1 hr 3 hr 6 hr
6 hour
Temperature (ºC) Pressure Precipitation (cm)